DECAYED

STARLINK-1932, 46770 (Decayed)

Orbit data source: Space-Track

STARLINK-1932, 46770 was a payload satellite owned by SpaceX/Seattle (US) in LEO that was launched on Sat, 24 Oct 2020 UTC via an FALCON 9 launch vehicle from the Air Force Eastern Test Range (AFETR). Payload-class satellites include a variety of spacecraft equipped with specific instruments for various scientific and technological missions. These include communications satellites like Starlink; space stations such as the ISS; scientific satellites like the Hubble; Earth observation satellites from companies like Planet Labs, Umbra, and HawkEye 360; GPS; miniature CubeSats for education and research; and military/defense satellites.

Not visible in the next 10 days
Identifier
46770, 2020-074AH
Orbit
Decayed
Last TLE update
1 month ago
Origin
Manufacturer
SpaceX/Seattle
Mission
Decayed Commercial Communications
Bus & Motor
STARLINK, Unknown motor
Mass
260 kg wet, ~248 kg dry
Launch date (UTC)
2020-10-24 (5 years ago)
Launch vehicle
FALCON 9
Launch site
Air Force Eastern Test Range (AFETR)
Object type
Payload
Rocket body
Debris
Shape & HBR
Box + 1 Pan, 8.86 m
Radar Cross Section
13.562 m², Large (>1 m²)

Expand to show TLE details & history

TLE from 1 month ago
0 STARLINK-1932
1 46770U 20074AH  25084.85463355  .32426334  12354-4  11393-2 0  9990
2 46770  53.0262  48.9915 0007276 173.7168 275.2962 16.43948716244658
Epoch: 2025-03-25T20:30Z
Definitive object data (Epoch: 2025-03-25T20:30:40.338Z)
Latitude
53.17185°
Longitude
5.99185°
Altitude
161.355 km
Speed
7.816 km/s
True Right ascension
09h 08m 50s
True Declination
52° 59' 30"
Sunlit
Object was in full shadow at TLE epoch
Visualization observer readout
Visualization observer readout
Orbital elements
Apogee altitude
160.365 km
Perigee altitude
150.857 km
Semi-major axis
6,533.748 km
Eccentricity
0.0007276
Inclination
53.0262°
RAAN
48.9915°
Arg. of periapsis
173.7168°
True anomaly
275.21317°
Mean anomaly
275.2962°
Eccentric anomaly
275.25469°
Mean motion
4.1096 °/min
BSTAR
0.0011393
Orbital period
87.6 mins
Loading maneuver chart data...
Loading SW <> Apogee altitude chart data...

STARLINK-1932 Visibility forecast

Observer location: undefined°, undefined°

This satellite is decayed
Span
Click to sort rows by Start time (UTC) header in descending order
Start Az.
Max El. time (UTC)
Max El. Az.
Max El.
End time (UTC)
End Az.
|